SCP
4 4 3 3 2 3 4 4 4 3 3 4 4 5 6 5 4 3 3 3 3 3 4 4 4 4 4 3 2 2 2 2 2 2 2 2 3 3 2 2 2 2 2
4 4 4 3 2 3 3 3 4 4 4 5 5 6 6 6 5 5 4 3 3 3 3 3 3 4 4 3 3 3 3 2 2 2 2 2 3 3 3 2 2 2 2
6 5 5 4 4 3 4 4 5 6 7 7 7 7 7 7 7 7 5 4 3 3 3 3 3 3 4 3 3 3 3 3 3 2 2 2 3 3 3 3 3 3 3
9 8 7 7 6 6 6 6 7 8 8 8 8 8 7 7 7 6 5 4 3 3 3 3 2 3 3 3 3 3 3 3 3 3 2 2 3 3 3 3 3 3 3
12 11 10 9 8 8 8 9 9 9 8 7 7 7 6 5 4 4 3 3 2 2 3 3 2 2 2 2 2 2 3 3 4 3 3 3 3 4 3 3 3 3 4
12 12 11 9 9 9 9 10 10 9 8 7 6 6 5 4 2 2 2 3 3 2 3 3 3 2 2 2 2 1 2 2 3 3 3 3 4 4 4 3 3 4 5
11 11 11 10 9 8 8 9 10 9 7 7 6 6 5 3 2 1 2 3 3 2 3 3 3 2 2 2 2 1 2 2 2 3 3 3 3 4 4 4 4 4 6
8 10 11 11 9 7 7 8 8 7 7 6 6 6 5 3 2 1 2 2 3 2 2 2 2 2 2 2 2 2 3 3 2 2 2 3 3 3 3 3 3 4 5
6 7 8 9 8 7 7 8 8 8 8 7 6 6 5 4 3 2 2 3 3 3 2 2 2 2 2 2 2 3 3 3 3 2 2 2 2 2 2 3 3 4 5
5 5 6 6 7 7 8 9 11 11 10 9 7 6 5 4 3 2 2 3 3 3 3 3 3 2 2 2 2 3 4 4 4 3 2 2 1 1 2 3 4 4 4
4 4 4 5 5 6 7 10 13 14 14 13 10 8 6 5 3 1 1 2 3 4 4 4 3 2 1 1 2 3 4 4 4 4 3 3 2 2 2 3 3 4 3
4 4 4 4 4 5 6 8 11 14 16 16 13 10 8 6 3 1 1 1 2 4 5 5 3 2 1 1 1 2 3 4 4 4 4 4 4 4 4 3 3 3 3
5 4 4 4 4 5 6 6 8 11 13 14 14 11 9 7 5 3 1 1 1 3 4 4 2 1 0 0 1 1 2 3 4 5 5 5 5 5 5 5 4 4 3
4 4 3 3 4 5 5 5 6 7 8 10 11 11 9 8 6 4 3 2 1 2 3 2 2 1 1 1 1 1 2 3 4 4 4 5 5 6 6 6 6 5 4
3 2 2 3 4 5 5 5 4 4 5 6 8 9 9 8 6 4 3 3 2 1 1 2 2 1 2 2 2 2 2 3 4 4 4 4 5 6 7 7 6 5 5
2 2 2 3 4 5 5 5 4 3 3 4 4 5 6 6 4 2 2 1 1 1 1 2 2 2 2 2 2 2 3 3 4 4 4 4 5 6 8 7 6 5 5
1 1 2 2 3 4 5 5 4 3 3 2 2 2 2 2 1 1 0 0 0 1 1 2 2 2 2 3 3 3 3 3 4 5 4 4 4 6 7 7 6 5 4
1 1 2 2 2 3 4 5 5 5 4 3 2 1 0 0 0 0 0 1 1 1 1 2 2 2 2 2 3 4 4 4 5 5 5 4 4 5 6 6 5 4 3
1 1 1 1 1 2 3 4 5 5 4 3 2 1 0 0 0 0 1 1 2 2 2 2 2 2 2 2 3 3 4 4 5 5 5 4 4 5 5 6 5 4 3
1 1 1 1 1 1 2 2 3 4 3 3 2 1 1 0 1 1 1 1 2 2 2 2 2 2 2 2 3 3 3 4 4 4 4 4 5 5 6 6 5 4 3
1 1 1 1 1 1 1 1 2 2 2 2 2 1 1 1 1 1 2 2 2 1 1 1 2 2 2 2 2 3 3 3 3 3 4 5 6 6 7 6 6 5 4
1 1 1 1 1 1 0 1 1 1 2 2 2 1 1 1 1 2 2 2 2 1 1 1 1 2 2 2 2 2 2 2 2 3 4 5 7 7 7 6 6 6 5
0 0 0 0 0 0 0 1 1 1 2 2 2 1 1 1 2 1 1 1 1 1 1 1 1 1 1 1 1 1 2 2 2 3 4 6 7 7 6 6 6 6 6
0 0 0 0 0 0 0 1 1 1 2 2 2 2 2 2 2 1 1 1 1 1 1 1 1 1 1 1 1 1 1 1 2 3 4 4 5 6 6 6 5 5 6
0 0 0 0 0 0 0 1 1 1 2 2 2 2 1 1 1 1 1 1 0 0 0 0 0 1 1 1 1 1 1 0 1 2 2 3 4 4 5 5 5 4 5
0 0 0 0 0 0 0 1 1 1 2 1 1 1 1 1 1 1 1 0 0 0 0 0 0 0 1 1 1 0 0 0 0 1 2 3 3 4 4 5 4 4 4
Wind_Speed
9 8 7 7 7 7 6 6 5 5 5 5 5 5 5 4 4 4 5 5 5 5 5 5 6 5 4 4 4 4 5 5 6 5 4 3 4 5 3 5 6 6 6
8 8 7 7 7 7 7 6 6 6 6 6 5 5 5 5 5 5 6 5 6 6 6 6 6 5 6 6 5 6 5 6 7 7 5 4 5 6 5 6 5 5 4
9 8 8 8 7 7 7 6 6 6 6 6 6 5 5 5 5 5 5 5 6 6 6 6 6 6 6 5 6 6 5 6 6 6 6 4 5 5 5 5 5 4 5
8 8 8 8 7 7 6 6 6 6 6 6 6 6 5 5 5 5 6 6 6 6 6 6 6 6 7 6 6 6 6 6 6 6 6 5 5 4 5 5 4 4 4
8 8 8 7 7 6 5 5 5 5 6 5 5 6 5 5 5 5 5 6 6 7 7 7 7 6 6 6 6 5 6 6 6 6 6 6 5 4 5 5 4 4 4
7 7 6 6 7 6 6 6 5 5 5 5 6 6 6 4 2 3 5 6 6 7 7 6 7 7 7 7 7 7 7 7 7 6 6 6 6 6 5 5 4 5 4
7 7 7 7 7 6 6 5 5 5 5 5 5 5 5 4 3 4 5 6 6 6 6 6 6 5 6 7 7 8 8 9 9 8 9 8 7 6 5 6 6 6 5
6 6 6 6 6 5 5 5 5 4 4 4 5 5 5 4 4 4 5 7 6 6 7 7 7 6 5 6 7 7 7 7 8 8 7 8 7 5 6 7 7 7 6
5 5 5 5 5 6 6 5 5 4 4 5 5 5 5 4 4 4 5 6 6 7 7 7 7 7 4 5 7 7 7 6 5 5 6 5 4 5 5 5 5 6 6
4 4 4 4 4 5 5 4 4 4 3 4 3 4 4 4 3 4 6 5 5 5 6 6 6 6 4 4 7 7 7 6 5 4 5 6 6 6 7 7 6 6 5
3 3 3 3 4 4 4 3 3 3 3 3 3 3 3 3 3 4 5 5 5 5 5 5 4 4 4 5 7 7 6 6 6 6 5 5 5 5 5 6 5 6 6
3 3 3 3 2 3 3 3 3 3 3 3 4 4 3 3 3 3 5 6 6 5 5 4 2 2 4 6 6 5 5 6 5 5 4 4 4 4 4 4 5 5 6
2 3 2 2 2 2 2 3 3 3 3 3 3 3 3 2 2 4 5 5 6 5 3 3 2 4 5 6 7 7 7 6 5 5 5 4 4 3 4 4 5 5 6
3 2 3 3 2 2 1 2 2 2 2 2 3 3 2 2 1 1 2 3 4 4 4 2 4 5 6 4 4 5 5 4 4 5 4 4 4 4 4 4 4 5 5
3 2 2 2 2 2 1 0 1 1 2 2 2 2 2 2 1 3 2 2 2 2 3 3 3 2 3 3 3 3 3 3 4 4 4 4 4 4 4 4 4 5 5
2 2 1 1 1 1 1 1 2 1 2 2 3 3 1 1 1 1 2 2 2 2 3 3 2 3 3 3 3 3 3 3 3 4 4 4 4 5 4 4 5 5 6
2 1 1 1 1 1 1 1 1 1 1 0 1 2 2 1 1 1 1 1 2 2 3 2 2 2 2 3 3 3 3 3 3 4 4 4 4 4 4 5 5 5 6
2 2 1 1 1 1 1 1 1 1 1 1 1 1 1 1 1 1 2 1 1 1 2 2 2 2 3 3 3 3 3 3 3 4 4 4 4 5 5 5 5 5 5
1 1 1 1 1 1 1 1 1 1 1 0 1 2 2 1 1 0 1 2 2 2 2 2 2 3 3 3 3 3 3 3 4 4 4 4 4 4 5 5 5 5 6
2 2 1 1 1 1 1 1 1 1 1 1 1 1 1 0 1 1 0 2 2 3 3 3 3 3 3 3 3 3 4 4 4 4 4 4 4 4 5 6 5 5 5
1 2 2 1 0 0 1 1 1 1 1 1 1 2 2 2 2 2 2 2 2 3 3 3 3 3 3 3 3 4 5 4 4 4 4 4 4 4 4 4 5 4 4
1 1 1 0 0 1 1 1 2 1 1 1 1 1 2 2 2 1 1 2 2 2 3 3 3 3 3 3 3 3 4 4 4 4 4 4 4 5 5 4 4 4 3
1 1 1 1 0 0 1 1 1 1 1 1 1 1 1 1 1 2 2 2 2 3 3 3 3 3 3 3 3 3 4 4 4 5 5 5 5 5 5 5 5 5 5
1 0 0 0 0 1 1 1 1 1 1 2 2 1 1 1 1 2 2 2 2 2 3 3 3 4 5 4 3 3 3 4 5 5 7 7 6 6 5 5 6 6 5
1 1 1 1 1 1 1 1 1 1 1 1 1 2 2 2 2 2 2 2 2 2 3 3 3 3 4 5 5 5 5 5 5 6 6 6 6 6 6 6 6 6 6
0 1 1 1 1 1 2 1 1 2 2 2 2 2 2 2 2 2 2 2 3 2 3 3 3 4 4 4 5 6 4 4 5 6 6 6 6 6 6 6 7 6 7
Wind_Direction
189 190 195 194 197 201 204 206 208 210 207 209 211 215 218 218 217 223 238 230 232 236 239 234 238 254 252 246 241 243 246 250 259 265 261 240 233 254 238 244 238 228 208
185 189 190 191 197 202 202 204 206 210 212 209 210 213 218 216 216 222 234 235 237 239 241 241 239 234 239 252 249 246 247 247 252 262 262 246 236 239 240 244 244 235 237
184 187 190 194 201 206 205 204 206 209 213 213 210 213 217 218 218 223 233 238 243 244 242 241 242 241 242 243 247 250 250 245 246 252 256 250 247 237 234 235 241 237 241
183 188 190 196 200 204 206 205 208 211 214 217 216 219 220 221 222 227 232 236 241 244 244 244 245 241 243 246 246 248 253 253 246 249 251 246 242 230 228 234 232 222 230
183 187 189 190 191 195 197 201 205 212 216 216 218 219 222 224 225 230 237 239 241 242 240 240 242 246 258 259 263 258 254 254 253 246 246 244 240 229 233 238 238 235 225
186 188 185 187 189 191 191 197 201 208 215 215 220 220 222 227 193 225 250 247 244 244 241 239 237 229 235 236 252 263 268 263 263 258 252 249 244 240 242 245 240 237 240
187 188 186 188 190 192 195 198 203 208 212 216 221 221 222 222 189 202 239 253 249 247 247 246 250 240 234 241 233 231 242 251 255 260 259 257 254 247 244 242 239 242 247
186 187 187 189 188 189 195 199 204 209 215 220 223 228 230 215 186 208 231 242 248 247 246 244 248 253 250 258 258 251 246 241 239 243 256 262 261 257 245 244 244 244 246
181 183 185 189 192 193 198 200 204 211 217 225 228 229 230 223 193 209 233 242 244 249 248 247 249 250 249 258 254 254 255 251 233 232 250 257 267 261 249 246 239 240 243
179 181 183 190 195 195 193 196 202 208 217 225 226 230 232 239 205 209 234 244 245 249 246 241 238 251 250 245 250 253 255 256 257 238 230 235 240 233 222 231 238 239 246
172 177 182 186 197 192 185 187 197 205 214 229 228 231 227 233 205 204 227 252 255 255 255 249 231 210 233 235 250 254 256 263 252 245 241 237 232 232 226 224 233 242 247
178 174 171 175 193 171 174 185 197 206 213 225 224 232 222 214 215 194 207 238 272 262 262 265 249 197 234 240 244 251 249 255 247 242 243 244 245 244 240 239 238 245 251
173 167 162 165 172 170 186 195 204 214 230 240 234 237 237 222 187 177 200 227 251 261 276 305 279 221 223 226 227 232 232 238 242 241 242 248 250 247 246 238 235 231 237
168 168 167 165 166 153 206 212 215 226 238 253 256 248 248 248 246 219 226 227 229 242 264 255 228 228 233 239 230 225 235 249 256 253 256 255 249 240 235 235 237 235 237
159 170 179 167 141 142 139 10 265 344 329 299 292 275 272 271 350 351 292 275 279 280 272 257 255 250 246 247 248 254 255 244 243 249 250 251 247 240 239 240 240 239 242
171 170 172 160 144 160 145 129 64 25 38 9 343 320 339 24 24 2 342 317 302 288 276 266 270 268 266 266 262 257 253 255 257 256 251 249 251 250 245 243 244 243 244
148 163 199 180 167 179 187 195 173 124 134 204 327 336 322 330 332 306 295 280 265 242 262 283 284 281 275 271 271 271 272 270 268 261 258 256 255 254 250 244 241 245 247
154 147 195 179 179 181 192 215 240 247 179 148 135 143 175 244 264 245 223 243 253 233 279 287 284 282 279 278 278 277 275 273 267 263 259 258 255 255 253 249 244 247 252
171 155 162 156 186 189 201 227 239 267 298 342 94 113 130 148 171 229 233 293 315 317 321 313 309 302 297 294 292 285 281 279 275 269 264 264 261 260 261 263 259 245 247
138 108 158 183 187 192 216 249 267 280 307 338 351 21 56 326 355 51 1 333 330 334 329 324 322 315 310 309 309 300 291 283 279 274 274 272 269 265 264 265 265 262 256
144 133 163 200 167 313 311 323 316 306 320 333 359 41 12 308 318 338 334 332 330 328 324 324 328 323 319 312 310 304 299 301 299 293 288 286 283 276 272 267 264 260 262
149 148 157 123 73 3 341 323 307 317 330 323 323 114 159 276 317 326 327 330 326 319 315 314 318 324 323 318 314 310 305 304 306 304 296 288 280 274 267 259 258 261 255
174 159 157 147 147 137 247 293 316 318 311 315 323 336 319 319 323 322 320 325 330 327 330 325 318 324 328 326 322 314 306 307 305 301 296 291 286 278 271 265 263 263 259
141 106 57 47 3 323 321 324 325 319 318 327 334 336 327 323 329 342 334 343 340 332 329 328 330 332 330 325 319 311 321 324 309 296 294 289 283 280 277 270 265 263 262
105 88 56 8 337 334 329 329 333 321 311 309 309 307 309 315 322 329 330 336 330 324 326 325 328 329 328 325 324 339 1 343 317 306 288 280 276 274 272 271 270 270 267
84 48 1 334 322 308 300 311 326 323 318 316 312 306 307 308 312 316 315 315 312 308 309 312 326 335 336 335 355 4 353 333 318 305 293 284 280 277 277 272 270 269 267